Hourly Data Report for April 11, 1979

WINDSOR A
ONTARIO

42°16'32.000" N
82°57'20.000" W
189.60 m
6139525
71538
YQG

Download Data

Hourly Data (April 1979)
Hourly Data Report for April 11, 1979
TIME
LST
Temp Definition
°C
Dew Point Definition
°C
Rel Hum Definition
%
Precip. Amount Definition
mm

Wind Dir Definition
10's deg

Wind Spd Definition
km/h
Visibility Definition
km
Stn Press Definition
kPa
Hmdx Definition


Wind Chill Definition


Weather Definition


00:00 0.9 -3.5 72   9 4 25.0 100.00     Mainly Clear
01:00 -0.4 -2.7 84   7 6 25.0 100.00   -2 Mainly Clear
02:00 -0.5 -2.8 85   7 4 25.0 100.06   -2 Mostly Cloudy
03:00 -0.8 -3.0 85   8 9 25.0 100.00   -4 Mainly Clear
04:00 -0.1 -2.8 82   8 15 25.0 99.93   -5 Mainly Clear
05:00 0.4 -3.4 76   8 15 25.0 100.00     Mainly Clear
06:00 0.1 -2.8 81   9 13 16.1 100.10     Mostly Cloudy
07:00 0.6 -2.3 81   8 22 19.3 100.03     Mostly Cloudy
08:00 1.2 -2.1 78   9 20 19.3 100.16     Mostly Cloudy
09:00 2.6 -1.7 73   9 24 19.3 100.13     Cloudy
10:00 3.8 -2.3 65   9 28 19.3 100.13     Cloudy
11:00 4.8 -1.9 62   9 31 19.3 100.06     Cloudy
12:00 4.4 -1.6 65   9 28 19.3 100.10     Cloudy
13:00 3.8 -1.0 71   9 22 11.3 100.13     Rain Showers,Ice Pellets
14:00 3.7 -0.2 75   9 28 16.1 100.03     Rain Showers
15:00 4.2 0.4 76   9 28 9.7 99.96     Rain, Fog
16:00 3.8 0.6 80   11 26 9.7 100.10     Rain, Fog
17:00 3.9 0.5 78   10 28 24.1 100.00     Cloudy
18:00 4.2 -0.1 73   10 31 25.0 99.90     Cloudy
19:00 4.3 -0.5 71   9 28 25.0 99.80     Cloudy
20:00 4.0 -0.3 74   9 26 25.0 99.70     Cloudy
21:00 4.2 -0.3 72   10 26 25.0 99.66     Cloudy
22:00 4.2 0.2 75   8 22 25.0 99.63     Cloudy
23:00 4.5 0.1 73   8 20 25.0 99.53     Mostly Cloudy

Notes on Data Quality.

Legend

  • E = Estimated
  • M = Missing
  • NA = Not Available*
  • [empty] = Indicates an unobserved value
Date modified: